Home   Weather   Celle   Past weeks

Flag for Germany Past Weather in Celle, Lower Saxony, Germany — Yesterday and Last 2 Weeks

Now
36 °F

Partly sunny.


Feels Like: 36 °F
Forecast: 22 / 32 °F
Wind: 2 mph from North

Location: Celle Airport

Current Time: Jan 20, 2017 at 1:22:39 pm

Latest Report: Jan 20, 2017 at 12:20 pm


Visibility: N/A

Pressure: 30.60 "Hg

Humidity: 65%

Dew Point: 25 °F

Location of CelleLocation

Past Weather in Celle — Graph

°F

Celle Temperature Yesterday

Maximum temperature yesterday: 36 °F (at 3:20 pm)
Minimum temperature yesterday: 25 °F (at 1:20 am)
Average temperature yesterday: 29 °F

High & Low Weather Summary for the Past Weeks

 TemperatureHumidityPressure
High43 °F (Jan 12, 1:20 pm)100% (Jan 7, 6:20 pm)30.77 "Hg (Jan 7, 6:20 pm)
Low10 °F (Jan 6, 6:20 am)56% (Jan 19, 2:20 pm)28.94 "Hg (Jan 13, 5:20 am)
Average30 °F88%30.13 "Hg
* Reported Jan 5 11:20 am — Jan 20 11:20 am, Celle, Weather by CustomWeather, © 2017

Note: Actual official high and low records may vary slightly from our data, if they occured in-between our weather recording intervals... More about our weather records

Advertising

Celle Weather History for the Previous 24 Hours

Scroll right to see more
 ConditionsComfort  
Time TempWeatherWind HumidityBarometerVisibility
11:20 am
Fri, Jan 20
36 °FScattered clouds.2 mph60%30.60 "Hg5 mi
10:20 am30 °FScattered clouds.No wind75%30.60 "Hg5 mi
9:20 am28 °FScattered clouds.No wind86%30.63 "Hg5 mi
8:20 am28 °FScattered clouds.1 mph86%30.60 "Hg5 mi
7:20 am30 °FPassing clouds.1 mph86%30.60 "HgN/A
6:20 am28 °FPassing clouds.No wind93%30.60 "HgN/A
5:20 am28 °FPassing clouds.2 mph86%30.60 "HgN/A
4:20 am28 °FPassing clouds.No wind86%30.63 "HgN/A
3:20 am27 °FPassing clouds.No wind93%30.63 "HgN/A
2:20 am27 °FPassing clouds.No wind93%30.63 "HgN/A
1:20 am28 °FPassing clouds.No wind80%30.63 "HgN/A
12:20 am28 °FPassing clouds.No wind86%30.63 "HgN/A
11:20 pm
Thu, Jan 19
30 °FPassing clouds.No wind75%30.63 "HgN/A
10:20 pm30 °FPassing clouds.No wind80%30.63 "HgN/A
9:20 pm30 °FPassing clouds.2 mph80%30.66 "HgN/A
8:20 pm30 °FPassing clouds.2 mph80%30.66 "HgN/A
7:20 pm32 °FPassing clouds.No wind75%30.66 "HgN/A
6:20 pm32 °FPassing clouds.No wind69%30.63 "HgN/A
5:20 pm32 °FPassing clouds.2 mph75%30.63 "HgN/A
4:20 pm34 °FPartly sunny.No wind60%30.63 "HgN/A
3:20 pm36 °FPartly sunny.No wind56%30.66 "HgN/A
2:20 pm34 °FPartly sunny.No wind56%30.66 "HgN/A
1:20 pm32 °FPartly sunny.No wind60%30.66 "Hg6 mi
Weather by CustomWeather, © 2017

See weather overviewHow to use our weather pages